Regional Weather Roundup
Issued by NWS

Home | Current Version | Previous Version | Graphics & Text | Print | Product List | Glossary On
Versions: 1 2 3 4 5 6 7 8 9 10 11 12 13 14 15 16 17 18 19 20 21 22 23 24 25 26 27 28 29 30 31 32 33 34 35 36 37 38 39 40 41 42 43 44 45 46 47 48 49 50
000
ASUS45 KBOI 160010
RWRID
WEATHER ROUNDUP FOR IDAHO
NATIONAL WEATHER SERVICE BOISE ID
600 PM MDT MON SEP 15 2014

NOTE: "FAIR" INDICATES FEW OR NO CLOUDS BELOW 12000 FEET
WITH NO SIGNIFICANT WEATHER AND/OR OBSTRUCTIONS TO VISIBILITY

IDZ012-014-160100-
SOUTHWEST IDAHO


CITY           SKY/WX    TMP DP  RH WIND       PRES   REMARKS
BOISE          PTSUNNY   90  33  13 N5        29.93F
CALDWELL       PTSUNNY   88  39  18 NE8       29.93F
MOUNTAIN HOME  MOSUNNY   91  32  12 VRB2      29.93F
$$

IDZ016-017-160100-
SOUTHCENTRAL IDAHO


CITY           SKY/WX    TMP DP  RH WIND       PRES   REMARKS
BURLEY         SUNNY     85  39  19 CALM      30.03F
JEROME         SUNNY     86  46  24 N3        30.03F
TWIN FALLS     MOSUNNY   83  44  25 NE5       30.04S
$$

IDZ019>023-160100-
SOUTHEAST IDAHO


CITY           SKY/WX    TMP DP  RH WIND       PRES   REMARKS
IDAHO FALLS    SUNNY     83  32  16 S12       30.09F
POCATELLO      MOSUNNY   87  29  12 W10       30.07F
REXBURG        SUNNY     80  33  18 S8        30.10S
$$

IDZ006-010-011-018-031-032-160100-
CENTRAL IDAHO MOUNTAINS


CITY           SKY/WX    TMP DP  RH WIND       PRES   REMARKS
MCCALL         MOSUNNY   77  34  21 S15       30.08R
HAILEY         MOSUNNY   81  37  21 SW6       30.12F
STANLEY          N/A     76  27  16 W8        30.20R
SALMON         SUNNY     81  30  16 CALM      30.00F
CHALLIS        SUNNY     82  32  16 NE3       30.07F
$$

IDZ002-004-006-007-026-160100-
NORTHERN IDAHO


CITY           SKY/WX    TMP DP  RH WIND       PRES   REMARKS
LEWISTON       SUNNY     87  32  14 W3        29.85F
LOWELL           N/A     72  50  45 CALM      29.87F
COEUR D`ALENE  SUNNY     81  30  16 CALM      29.94S
MULLAN PASS    SUNNY     69  25  19 CALM      30.16S
$$


USA.gov is the U.S. government's official web portal to all federal, state and local government web resources and services.